KD9BEW Weather Reports


Display with metric or nautical units.
time (UTC)temp
F
wind
direction
speed
MPH
gust
MPH
rain 1hr
in
rain 24hr
in
rain mn
in
humidity
%
barometer
mb
20260902211617 86 54 1.0 6.0 0.00 0.00 0.00 46 1011.9
20260902210119 87 63 1.0 8.0 0.00 0.00 0.00 44 1011.9
20260902204603 87 44 3.0 5.0 0.00 0.00 0.00 43 1012.0
20260902203101 87 42 2.0 4.0 0.00 0.00 0.00 41 1012.2
20260902201613 86 121 1.0 5.0 0.00 0.00 0.00 43 1012.4
20260902194604 85 49 3.0 6.0 0.00 0.00 0.00 45 1012.5
20260902193101 86 22 1.0 5.0 0.00 0.00 0.00 45 1012.7
20260902191606 86 42 2.0 5.0 0.00 0.00 0.00 45 1012.7
20260902190106 86 266 2.0 5.0 0.00 0.00 0.00 44 1012.7
20260902184603 85 306 2.0 10.0 0.00 0.00 0.00 44 1012.9
20260902183101 86 129 2.0 7.0 0.00 0.00 0.00 42 1012.9
20260902181606 86 279 1.0 4.0 0.00 0.00 0.00 43 1013.0
20260902180117 85 269 2.0 5.0 0.00 0.00 0.00 44 1013.0
20260902174603 84 271 1.0 7.0 0.00 0.00 0.00 46 1013.2
20260902173103 84 0 2.0 6.0 0.00 0.00 0.00 46 1013.7
20260902171601 83 263 2.0 5.0 0.00 0.00 0.00 49 1013.4
20260902170114 82 39 1.0 4.0 0.00 0.00 0.00 48 1013.3
20260902164606 81 11 1.0 4.0 0.00 0.00 0.00 51 1013.4
20260902163100 81 0 1.0 3.0 0.00 0.00 0.00 50 1013.5
20260902161608 80 184 1.0 4.0 0.00 0.00 0.00 54 1013.5
20260902154603 79 164 0.0 3.0 0.00 0.00 0.00 56 1013.5
20260902153055 78 140 1.0 6.0 0.00 0.00 0.00 59 1013.6
20260902151607 76 254 1.0 6.0 0.00 0.00 0.00 61 1013.5
20260902144610 74 121 1.0 4.0 0.00 0.00 0.00 67 1013.6
20260902143106 74 134 0.0 4.0 0.00 0.00 0.00 67 1013.7
20260902141602 73 178 2.0 6.0 0.00 0.00 0.00 68 1013.9
20260902134602 68 111 0.0 2.0 0.00 0.00 0.00 80 1014.1
20260902133103 65 0 0.0 1.0 0.00 0.00 0.00 85 1014.2
20260902131604 64 0 0.0 0.0 0.00 0.00 0.00 85 1014.1
20260902130106 63 0 0.0 0.0 0.00 0.00 0.00 86 1014.1
20260902124558 62 0 0.0 0.0 0.00 0.00 0.00 87 1014.0
20260902123103 61 0 0.0 0.0 0.00 0.00 0.00 87 1013.7
20260902121604 61 0 0.0 0.0 0.00 0.00 0.00 87 1013.7
20260902114600 61 0 0.0 0.0 0.00 0.00 0.00 86 1013.5
20260902113058 62 0 0.0 0.0 0.00 0.00 0.00 84 1013.3
20260902111602 63 0 0.0 0.0 0.00 0.00 0.00 83 1013.2
20260902110108 64 0 0.0 0.0 0.00 0.00 0.00 81 1013.2
20260902104600 65 0 0.0 0.0 0.00 0.00 0.00 80 1013.5
20260902103058 66 0 0.0 1.0 0.00 0.00 0.00 79 1013.5
20260902101601 66 0 0.0 1.0 0.00 0.00 0.00 79 1013.7
20260902100110 66 0 0.0 3.0 0.00 0.00 0.00 79 1013.8
20260902094615 66 162 0.0 2.0 0.00 0.00 0.00 79 1013.8
20260902093056 66 0 0.0 3.0 0.00 0.00 0.00 80 1013.8
20260902091603 65 0 0.0 0.0 0.00 0.00 0.00 81 1013.6
20260902090058 65 0 0.0 0.0 0.00 0.00 0.00 80 1013.3
20260902084606 66 0 0.0 0.0 0.00 0.00 0.00 79 1013.3
20260902083103 66 0 0.0 0.0 0.00 0.00 0.00 78 1013.3
20260902081602 66 0 0.0 0.0 0.00 0.00 0.00 79 1013.3
20260902080117 66 0 0.0 0.0 0.00 0.00 0.00 78 1013.3
20260902074604 66 0 0.0 0.0 0.00 0.00 0.00 78 1013.2
20260902073100 66 0 0.0 0.0 0.00 0.00 0.00 77 1013.5
20260902071604 67 0 0.0 0.0 0.00 0.00 0.00 77 1013.8
20260902070108 67 0 0.0 0.0 0.00 0.00 0.00 76 1013.6
20260902064612 67 0 0.0 0.0 0.00 0.00 0.00 75 1013.2
20260902063106 67 0 0.0 0.0 0.00 0.00 0.00 74 1013.4
20260902061604 68 0 0.0 0.0 0.00 0.00 0.00 73 1013.6
20260902060125 68 0 0.0 1.0 0.00 0.00 0.00 72 1013.7
20260902054603 68 0 0.0 1.0 0.00 0.00 0.00 71 1013.7
20260902053124 69 165 0.0 1.0 0.00 0.00 0.00 69 1013.5
20260902051605 69 0 0.0 2.0 0.00 0.00 0.00 68 1013.8
20260902050109 69 155 0.0 3.0 0.00 0.00 0.00 68 1013.9
20260902044604 69 141 1.0 4.0 0.00 0.00 0.00 67 1013.9
20260902043101 69 173 0.0 2.0 0.00 0.00 0.00 68 1014.0
20260902041605 68 200 1.0 3.0 0.00 0.00 0.00 68 1013.9
20260902040107 68 150 1.0 4.0 0.00 0.00 0.00 67 1013.7
20260902034607 68 145 1.0 3.0 0.00 0.00 0.00 66 1013.7
20260902033109 68 161 0.0 1.0 0.00 0.00 0.00 66 1013.7
20260902031609 69 0 0.0 1.0 0.00 0.00 0.00 64 1013.4
20260902024612 69 155 0.0 2.0 0.00 0.00 0.00 64 1013.5
20260902023106 70 138 0.0 1.0 0.00 0.00 0.00 62 1013.4
20260902021615 71 142 0.0 3.0 0.00 0.00 0.00 61 1013.5
20260902014603 73 118 0.0 3.0 0.00 0.00 0.00 55 1013.1
20260902013109 72 252 1.0 5.0 0.00 0.00 0.00 56 1012.9
20260902011600 73 0 0.0 1.0 0.00 0.00 0.00 56 1012.9
20260902010108 75 0 0.0 3.0 0.00 0.00 0.00 53 1012.7
20260902004602 77 221 1.0 5.0 0.00 0.00 0.00 49 1012.7
20260902003103 78 150 0.0 5.0 0.00 0.00 0.00 46 1012.4
20260902001602 78 142 1.0 5.0 0.00 0.00 0.00 45 1012.6
20260902000101 79 145 0.0 5.0 0.00 0.00 0.00 45 1012.6
20260901234602 81 164 3.0 8.0 0.00 0.00 0.00 44 1012.5
20260901233100 81 202 2.0 6.0 0.00 0.00 0.00 44 1012.3
20260901231604 82 183 3.0 9.0 0.00 0.00 0.00 44 1012.3
20260901224559 84 299 3.0 7.0 0.00 0.00 0.00 43 1012.3
20260901223057 85 256 2.0 6.0 0.00 0.00 0.00 42 1012.2
20260901221608 85 137 2.0 8.0 0.00 0.00 0.00 44 1012.2
20260901220108 85 157 2.0 8.0 0.00 0.00 0.00 43 1012.2
20260901214559 84 248 2.0 7.0 0.00 0.00 0.00 43 1012.2
20260901213102 84 140 2.0 7.0 0.00 0.00 0.00 41 1012.2